Regional Weather Roundup
Issued by NWS Columbia, SC

Current Version | Previous Version | Text Only | Print | Product List | Glossary On
Versions: 1 2 3 4 5 6 7 8 9 10 11 12 13 14 15 16 17 18 19 20 21 22 23 24 25 26 27 28 29 30 31 32 33 34 35 36 37 38 39 40 41 42 43 44 45 46 47 48 49 50
000
ASUS42 KCAE 170010
RWRCAE
REGIONAL WEATHER ROUNDUP
NATIONAL WEATHER SERVICE COLUMBIA SC
800 PM EDT TUE SEP 16 2014

NOTE: "FAIR" INDICATES FEW OR NO CLOUDS BELOW 12,000 FEET WITH NO
SIGNIFICANT WEATHER AND/OR OBSTRUCTIONS TO VISIBILITY.

NOT ALL STATIONS ARE QUALITY CONTROLLED BY THE NATIONAL
WEATHER SERVICE. USE DATA WITH CAUTION...ESPECIALLY
DEWPOINT OBSERVATIONS.

SCZ001>056-GAZ040-063>065-077-170100-
...UPSTATE SOUTH CAROLINA...

CITY           SKY/WX    TMP DP  RH WIND       PRES   REMARKS
ANDERSON       CLEAR     76  69  79 CALM      29.96R
6HR MIN TEMP:  76; 6HR MAX TEMP:  88;

LIBERTY        FAIR      73  67  82 SE3       29.97S
6HR MIN TEMP:  62; 6HR MAX TEMP:  90;

SPARTANBURG    FAIR      75  68  78 W5        29.96S
CLEMSON        CLEAR     78  66  66 NE3       29.97S
6HR MIN TEMP:  78; 6HR MAX TEMP:  89; 6HR PCP: TRACE;

GREENVILLE     PTCLDY    72  67  84 CALM      29.97S
6HR MIN TEMP:  70; 6HR MAX TEMP:  86; 6HR PCP:  0.72;

GREENWOOD      MOCLDY    79  71  76 N17G23    29.98R
6HR MIN TEMP:  79; 6HR MAX TEMP:  89;

GREER          PTCLDY    70  69  97 CALM      29.96S
6HR MIN TEMP:  68; 6HR MAX TEMP:  86; 6HR PCP:  0.43;

ROCK HILL      MOCLDY    75  70  84 CALM      29.95R
6HR MIN TEMP:  75; 6HR MAX TEMP:  86;

CHESTER        FAIR      79  66  65 S3        29.99S
LAURENS        TSTM      70  64  83 SW14G20   29.99R


...CENTRAL SOUTH CAROLINA...

CITY           SKY/WX    TMP DP  RH WIND       PRES   REMARKS
COLUMBIA APT   MOCLDY    83  69  62 E9        29.93R
6HR MIN TEMP:  83; 6HR MAX TEMP:  90;

COLUMBIA OWENS MOCLDY    82  69  64 CALM      29.94S
6HR MIN TEMP:  82; 6HR MAX TEMP:  90;

DARLINGTON     CLEAR     75  68  78 SE5       29.96R
6HR MIN TEMP:  75; 6HR MAX TEMP:  88;

FLORENCE       CLEAR     78  70  76 S3        29.95R
6HR MIN TEMP:  78; 6HR MAX TEMP:  87;

MCENTIRE ANGB  MOCLDY    76  74  94 SE2       29.95R
6HR MIN TEMP:  76; 6HR MAX TEMP:  89;

ORANGEBURG     PTCLDY    77  71  82 SE14      29.96R
6HR MIN TEMP:  77; 6HR MAX TEMP:  89; 6HR PCP: TRACE;

SUMTER SHAW    LGT RAIN  79  70  73 SE5       29.93S
6HR MIN TEMP:  79; 6HR MAX TEMP:  87; 6HR PCP: TRACE;

NEWBERRY       FAIR      77  68  73 CALM      29.97S
AIKEN          FAIR      79  73  83 CALM      29.98S
BARNWELL       FAIR      81  73  78 CALM      29.94S
MANNING        FAIR      75 N/A N/A S3        29.97R
CAMDEN         FAIR      77  72  83 CALM      29.96R
LANCASTER      FAIR      75  75 100 SE5       29.95R
WINNSBORO      FAIR      79  70  73 SE3       29.94F


...EASTERN AND COASTAL SOUTH CAROLINA...

CITY           SKY/WX    TMP DP  RH WIND       PRES   REMARKS
MYRTLE BEACH   MOCLDY    79  73  83 W3        29.96R
6HR MIN TEMP:  79; 6HR MAX TEMP:  86; 6HR PCP:  0.01;

N MYRTLE BCH   PTCLDY    79  72  79 SE3       29.95R
6HR MIN TEMP:  79; 6HR MAX TEMP:  87;

CONWAY         FAIR      75  75 100 CALM      29.95R
MARION         FAIR      73  70  88 CALM      29.95R
HARTSVILLE     FAIR      77  55  47 CALM      29.96R
FLORENCE       CLEAR     78  70  76 S3        29.95R
6HR MIN TEMP:  78; 6HR MAX TEMP:  87;

DARLINGTON     CLEAR     75  68  78 SE5       29.96R
6HR MIN TEMP:  75; 6HR MAX TEMP:  88;

CHARLESTON APT LGT RAIN  74  72  93 N7        29.98R
6HR MIN TEMP:  73; 6HR MAX TEMP:  87; 6HR PCP:  1.51;

MOUNT PLEASANT RAIN      73  73 100 NW7       29.98R
WALTERBORO     CLOUDY    73 N/A N/A NW6       30.00R
BEAUFORT       TSTM      75  72  90 NW5       29.96S
6HR MIN TEMP:  74; 6HR MAX TEMP:  91;



...EASTERN GEORGIA...

CITY           SKY/WX    TMP DP  RH WIND       PRES   REMARKS
AUGUSTA BUSH F MOCLDY    77  72  84 CALM      29.93R
6HR MIN TEMP:  77; 6HR MAX TEMP:  90;

AUGUSTA DANIEL MOCLDY    84  70  62 CALM      29.95R
6HR MIN TEMP:  84; 6HR MAX TEMP:  90;

THOMSON        PTCLDY    80  78  92 CALM      30.00R
6HR MIN TEMP:  80; 6HR MAX TEMP:  89;

WASHINGTON     FAIR      81  81 100 CALM      29.96R
CLAXTON        FAIR      77  77 100 CALM      29.95S
SYLVANIA       CLOUDY    82  77  85 SE6       29.96R THUNDER
6HR MIN TEMP:  82; 6HR MAX TEMP:  90;

STATESBORO     PTCLDY    78  77  95 E7        29.94S
SAVANNAH       CLOUDY    77  70  79 NE12      29.97R
6HR MIN TEMP:  77; 6HR MAX TEMP:  90; 6HR PCP: TRACE;



...SOUTHERN NORTH CAROLINA...

CITY           SKY/WX    TMP DP  RH WIND       PRES   REMARKS
CHARLOTTE      MOCLDY    75  61  61 E8        29.96R
6HR MIN TEMP:  75; 6HR MAX TEMP:  86;

MONROE         MOCLDY    71  64  78 NE3       29.96R
6HR MIN TEMP:  71; 6HR MAX TEMP:  86; 6HR PCP: TRACE;

WADESBORO      LGT RAIN  78  69  72 S5        29.93S
6HR MIN TEMP:  78; 6HR MAX TEMP:  87;

ROCKINGHAM     CLEAR     78  69  74 CALM      29.95R
6HR MIN TEMP:  78; 6HR MAX TEMP:  85;

RUTHERFORDTON  PTCLDY    73  69  86 CALM      29.98S
6HR MIN TEMP:  73; 6HR MAX TEMP:  86;

ASHEVILLE      MOCLDY    70  63  78 N8        30.04R
6HR MIN TEMP:  70; 6HR MAX TEMP:  81; 6HR PCP: TRACE;


$$


USA.gov is the U.S. government's official web portal to all federal, state and local government web resources and services.